Weather in The Sunny Beach

Bulgaria     42°41′18″N   27°42′24″E
temp.,
°C
wind,
m/s
gust,
m/s
humid.,
%
clouds,
%
prec.,
mm/h
press.,
hPa
HPBL,
m
18 may, tue
tue1800:00+15wsw1288100 0.4 100714
03:00+14w359093 0.4 100688
06:00+14w338793 0.1 100649
09:00+17nw4974100 0.1 1008607
12:00+19wnw9134865 0.1 10091423
15:00+20wnw811444 0.1 10081877
18:00+20w613540 0.0 10091848
21:00+16w715510 0.0 10101086
19 may, wed
wed1900:00+13wsw411660 0.0 1011355
03:00+10wsw411760 0.0 1012243
06:00+10w34784 0.0 101377
09:00+17w510544 0.0 1014841
12:00+21wsw574266 0.0 10131316
15:00+23sw454559 0.0 10121446
18:00+20sse465857 0.0 1011345
21:00+15se37875 0.0 1011141
20 may, thu
thu2000:00+14sse35841 0.0 101099
03:00+13sse22892 0.0 100934
06:00+13w11875 0.0 100811
09:00+18nnw36640 0.0 1008515
12:00+20nnw666061 0.0 1008984
15:00+18nnw91159100 0.0 1009795
18:00+15nw61066100 0.0 1010774
21:00+14nw41070100 0.1 1012647
21 may, fri
fri2100:00+13nw247399 0.0 1012192
03:00+13nnw3874100 0.0 1012476
06:00+11nw41277100 0.1 1011510
09:00+10nw51289100 2.4 1012494
12:00+12nw61089100 6.6 1011790
15:00+12nne2391100 15.5 1012336
18:00+12nnw31092100 3.3 1011589
21:00+12nw3992100 3.8 1012329
22 may, sat
sat2200:00+12nnw41092100 0.8 1012421
03:00+12nnw61294100 1.4 1012610
06:00+12nnw7149086 0.5 1013686
09:00+14nnw8148288 0.5 1014907
12:00+18n696698 0.0 10141248
15:00+19n576182 0.1 10151246
18:00+20n35602 0.0 10141276
21:00+15nw11770 0.0 101411